Weather History for Lowell, ID

Change the Weather History Date:

Wednesday, July 10, 2013

  Actual Average Record
Temperature  
Mean Temperature 76 °F -  
Max Temperature 97 °F 85 °F 98 °F (2001)
Min Temperature 55 °F 52 °F 46 °F (1999)
Cooling Degree Days 11    
Growing Degree Days 26 (Base 50)    
Moisture  
Dew Point 55 °F    
Average Humidity 59    
Maximum Humidity 87    
Minimum Humidity 24    
Precipitation  
Precipitation 0.00 in - - ()
Sea Level Pressure  
Sea Level Pressure 29.84 in    
Wind  
Wind Speed 2 mph (NNW)    
Max Wind Speed 7 mph    
Max Gust Speed -    
Averages and records for this station are not official NWS values.
T = Trace of Precipitation, MM = Missing Value Source: NWS Daily Summary

Daily Weather History Graph

Daily Weather History Graph

Search for Another Location

Airport:

Trip Planner

Search our weather history database for the weather conditions in past years. The results will help you decide how hot, cold, wet, or windy it might be!

Date:

Astronomy

Jul. 10, 2013 Rise Set
Actual Time 6:01 AM MDT 9:33 PM MDT
Civil Twilight 5:23 AM MDT 10:11 PM MDT
Nautical Twilight 4:33 AM MDT 11:00 PM MDT
Astronomical Twilight 3:27 AM MDT 12:06 AM MDT
Moon 8:37 AM MDT (7/10) 10:32 PM MDT (7/10)
Length of Visible Light 16h 47m
Length of Day
15h 31m
Waxing Crescent, 5% of the Moon is Illuminated
Jul 10
Waxing Crescent
Jul 15
First Quarter
Jul 22
Full
Jul 29
Last Quarter
Aug 6
New

Hourly Weather History & Observations

Time (MDT) Temp. Heat Index Dew Point Humidity Pressure Visibility Wind Dir Wind Speed Gust Speed Precip Events Conditions
12:52 AM 62.1 °F - 54.0 °F 75% 29.97 in - NNW 3.5 mph - N/A   Unknown
1:52 AM 61.0 °F - 54.0 °F 78% 29.97 in - Calm Calm - N/A   Unknown
2:52 AM 59.0 °F - 53.1 °F 81% 29.97 in - North 3.5 mph - N/A   Unknown
3:52 AM 57.9 °F - 52.0 °F 81% 29.97 in - NNW 3.5 mph - N/A   Unknown
4:52 AM 57.0 °F - 52.0 °F 83% 29.98 in - Calm Calm - N/A   Unknown
5:52 AM 55.9 °F - 51.1 °F 84% 29.99 in - North 3.5 mph - N/A   Unknown
6:52 AM 55.0 °F - 51.1 °F 86% 30.01 in - Calm Calm - N/A   Unknown
7:52 AM 55.9 °F - 52.0 °F 87% 30.02 in - Calm Calm - N/A   Unknown
8:52 AM 60.1 °F - 52.0 °F 75% 30.00 in - Calm Calm - N/A   Unknown
9:52 AM 66.9 °F - 51.1 °F 57% 29.96 in - Calm Calm - N/A   Unknown
10:52 AM 75.0 °F - 50.0 °F 41% 29.91 in - Calm Calm - N/A   Unknown
11:52 AM 77.0 °F - 50.0 °F 39% 29.86 in - Calm Calm - N/A   Unknown
12:52 PM 84.0 °F - 52.0 °F 33% 29.81 in - Calm Calm - N/A   Unknown
1:52 PM 93.0 °F - 51.1 °F 24% 29.75 in - Calm Calm - N/A   Unknown
2:52 PM 93.9 °F 92.6 °F 57.0 °F 29% 29.72 in - SSE 6.9 mph - N/A   Unknown
3:52 PM 97.0 °F 95.7 °F 57.0 °F 26% 29.69 in - Variable 4.6 mph - N/A   Unknown
4:52 PM 93.9 °F 93.2 °F 59.0 °F 31% 29.67 in - Calm Calm - N/A   Unknown
5:52 PM 93.9 °F 92.2 °F 55.9 °F 28% 29.66 in - Calm Calm - N/A   Unknown
6:52 PM 84.0 °F 83.8 °F 59.0 °F 43% 29.68 in - Calm Calm - N/A   Unknown
7:52 PM 79.0 °F - 62.1 °F 56% 29.68 in - Calm Calm - N/A   Unknown
8:52 PM 75.9 °F - 62.1 °F 62% 29.71 in - Calm Calm - N/A   Unknown
9:52 PM 72.0 °F - 61.0 °F 68% 29.73 in - Calm Calm - N/A   Unknown
10:52 PM 69.1 °F - 60.1 °F 73% 29.75 in - Calm Calm - N/A   Unknown
11:52 PM 66.9 °F - 59.0 °F 76% 29.75 in - Calm Calm - N/A   Unknown